#timestamp,LO_Frequency,Hit,StdDev 
1593547215.5,286047003.0,N
1593547235.3,286047003.2,P
1593547255.1,286047007.2,Y
1593547275.9,286047008.5,P
1593547295.7,286047008.5,P
1593547315.5,286047011.1,P
1593547335.4,286047013.3,Y
1593547355.2,286047005.1,P
1593547375.1,286047014.7,P
1593547376.0,286047014.7,P
1593547395.8,286047018.0,Y
1593547415.6,286047009.1,P
1593547435.5,286047012.2,P
1593547455.3,286047011.2,P
1593547475.1,286047019.4,Y
1593547495.9,286047010.1,P
1593547515.7,286047010.6,P
1593547535.6,286047013.8,P
1593547555.4,286047018.1,Y
1593547575.2,286047008.7,P
1593547595.1,286047005.2,P
1593547596.0,286047005.2,N
1593547615.8,286047007.4,N
1593547635.6,286047004.6,N
1593547655.5,286047008.7,Y
1593547675.3,286047004.1,P
1593547695.2,286047005.6,P
1593547715.9,286047007.7,P
1593547735.7,286047009.8,Y
1593547755.6,286047005.3,P
1593547775.4,286047004.7,P
1593547795.3,286047012.2,P
1593547815.1,286047009.8,Y
1593547835.8,286047006.0,P
1593547855.7,286047007.4,P
1593547875.5,286047006.8,P
1593547895.4,286047012.2,Y
1593547915.2,286047007.2,P
1593547935.0,286047005.8,P
1593547935.9,286047005.8,P
1593547955.8,286047000.9,N
1593547975.6,286047001.0,N
1593547995.5,286047001.6,N
1593548015.3,286046998.5,N
1593548035.1,286046997.8,N
1593548055.9,286046993.3,N
1593548075.7,286046994.3,N
1593548095.5,286046994.6,N
1593548115.4,286046996.7,N
1593548135.2,286046997.7,N
1593548155.1,286047000.5,N
1593548156.0,286047000.5,N
1593548175.8,286047003.9,N
1593548195.6,286047005.7,N
1593548215.5,286047003.4,N
1593548235.3,286047006.4,N
1593548255.1,286047008.7,N
1593548275.9,286047003.9,N
1593548295.7,286047002.3,N
1593548315.6,286047008.8,N
1593548335.4,286047006.4,N
1593548355.2,286047009.7,N
1593548375.1,286047013.2,N
1593548376.0,286047013.2,N
1593548395.8,286047012.9,N
1593548415.7,286047017.9,Y
1593548435.5,286047016.6,P
1593548455.3,286047016.9,N
1593548475.2,286047016.4,N
1593548495.0,286047015.9,N
1593548495.9,286047015.9,Y
1593548515.8,286047003.8,P
1593548535.6,286046999.8,N
1593548555.4,286047000.8,N
1593548575.3,286046998.7,N
1593548595.1,286047004.4,N
1593548615.8,286047000.1,N
1593548635.7,286047002.6,N
1593548655.5,286047005.0,N
1593548675.4,286047009.0,N
1593548695.2,286047009.1,N
1593548715.0,286047006.4,N
1593548715.9,286047006.4,N
1593548735.8,286047010.6,N
1593548755.6,286047012.1,N
1593548775.4,286047009.9,N
1593548795.3,286047009.0,N
1593548815.1,286047009.1,N
1593548835.9,286047004.6,N
1593548855.7,286047005.7,N
1593548875.5,286047003.3,N
1593548895.4,286047006.8,N
1593548915.2,286047006.7,N
1593548935.0,286047004.1,N
1593548935.9,286047004.1,N
1593548955.8,286047001.9,N
1593548975.6,286047009.1,N
1593548995.5,286047003.8,N
1593549015.3,286047001.1,N
1593549035.1,286046998.7,N
1593549055.9,286046997.6,N
1593549075.7,286046994.3,N
1593549095.5,286046990.8,N
1593549115.4,286046990.6,N
1593549135.2,286046992.1,N
1593549155.0,286046996.4,N
1593549156.0,286046996.4,N
1593549175.8,286046995.2,N
1593549195.6,286046996.1,N
1593549215.5,286046995.3,N
1593549235.3,286046990.2,N
1593549255.1,286046990.5,N
1593549275.9,286046988.3,N
1593549295.7,286046984.3,N
1593549315.6,286046984.9,N
1593549335.4,286046983.9,N
1593549355.2,286046986.5,N
1593549375.1,286046989.5,N
1593549376.0,286046989.5,N
1593549395.8,286046990.4,N
1593549415.7,286046993.7,N
1593549435.5,286046990.2,N
1593549455.3,286046990.8,N
1593549475.2,286046987.1,N
1593549495.0,286046988.0,N
1593549495.9,286046988.0,N
1593549515.7,286046985.9,N
1593549535.6,286046986.2,N
1593549555.4,286046986.5,Y
1593549575.3,286046995.9,P
1593549595.1,286047000.6,N
1593549615.8,286046998.2,N
1593549635.7,286046996.7,N
1593549655.5,286046996.7,N
1593549675.3,286046996.8,N
1593549695.2,286046997.8,N
1593549715.0,286046997.4,N
1593549715.9,286046997.4,N
1593549735.8,286047001.1,N
1593549755.6,286047002.2,N
1593549775.4,286047004.2,N
1593549795.3,286047002.0,N
1593549815.1,286047002.2,N
1593549835.9,286046998.7,N
1593549855.7,286046996.7,N
1593549875.5,286046996.1,N
1593549895.4,286046997.7,N
1593549915.2,286046997.3,N
1593549935.0,286046996.6,N
1593549935.9,286046996.6,N
1593549955.8,286046995.0,N
1593549975.6,286046993.0,N
1593549995.5,286046991.0,Y
1593550015.3,286046992.3,P
1593550035.1,286046992.6,N
1593550055.9,286046993.5,N
1593550075.7,286046996.8,N
1593550095.5,286047000.8,N
1593550115.4,286046999.8,N
1593550135.2,286047001.7,N
1593550155.0,286047001.8,N
1593550156.0,286047001.8,N
1593550175.8,286047001.5,N
1593550195.6,286047003.5,N
1593550215.5,286047003.4,N
1593550235.3,286047004.4,N
1593550255.1,286047008.7,N
1593550275.9,286047008.1,N
1593550295.7,286047013.9,N
1593550315.5,286047008.0,N
1593550335.4,286047007.3,N
1593550355.2,286047004.1,N
1593550375.1,286047001.9,N
1593550376.0,286047001.9,N
1593550395.8,286047000.3,N
1593550415.6,286047001.2,N
1593550435.5,286047001.2,N
1593550455.3,286046998.0,N
1593550475.1,286046992.6,N
1593550495.9,286046990.4,N
1593550515.7,286046993.9,N
1593550535.6,286046993.4,N
1593550555.4,286046992.0,N
1593550575.2,286046988.7,N
1593550595.1,286046994.8,N
1593550596.0,286046994.8,N
1593550615.8,286046994.0,N
1593550635.7,286046990.7,N
1593550655.5,286046992.2,N
1593550675.3,286046994.2,N
1593550695.2,286046992.2,N
1593550715.9,286046992.8,N
1593550735.7,286046992.8,N
1593550755.6,286046994.8,N
1593550775.4,286046988.9,N
1593550795.2,286046987.9,N
